AFL1701 UHWW-UUEE

Flight info

Callsign AFL1701
Flight time N/A
Altitude 41000
Route K0907F410 DOLMA2F DOLMA B356 TD B355 HAB/K0907F400 L168 LALIR A718 BESEG A946 LEBNA DCT UNILA N742 URENA/K0922F430 N742 UHT T791 KTL T187 ROMTA ROMTA3E
Aircraft A359/H-SDE2E3GHIJ3J4J5LM1ORWXY/LB1D1

Departure

Time 2026-04-20 15:16
Airport Vladivostok International Airport (UHWW)

Arrival

Time N/A
Airport Sheremetyevo International Airport (UUEE)
Time Latitude Longitude Altitude Speed Heading
2026-04-20 14:29 43.39705 132.16412 39 ft 0 kts 148°
2026-04-20 14:59 43.39711 132.16407 38 ft 3 kts 146°
2026-04-20 14:59 43.39727 132.16391 37 ft 3 kts 150°
2026-04-20 14:59 43.39745 132.16380 35 ft 3 kts 162°
2026-04-20 15:00 43.39765 132.16371 37 ft 3 kts 161°
2026-04-20 15:00 43.39783 132.16363 38 ft 2 kts 166°
2026-04-20 15:00 43.39788 132.16362 38 ft 0 kts 166°
2026-04-20 15:05 43.39786 132.16361 38 ft 0 kts 178°
2026-04-20 15:05 43.39785 132.16360 38 ft 0 kts 185°
2026-04-20 15:05 43.39783 132.16358 38 ft 1 kts 194°
2026-04-20 15:05 43.39780 132.16349 39 ft 0 kts 235°
2026-04-20 15:06 43.39777 132.16344 39 ft 1 kts 236°
2026-04-20 15:06 43.39776 132.16342 39 ft 0 kts 236°
2026-04-20 15:07 43.39773 132.16335 39 ft 4 kts 236°
2026-04-20 15:07 43.39754 132.16263 39 ft 11 kts 275°
2026-04-20 15:08 43.39801 132.16178 37 ft 13 kts 324°
2026-04-20 15:08 43.39878 132.16109 39 ft 14 kts 314°
2026-04-20 15:08 43.39867 132.15992 39 ft 14 kts 241°
2026-04-20 15:08 43.39814 132.15862 39 ft 17 kts 241°
2026-04-20 15:09 43.39753 132.15710 39 ft 19 kts 241°
2026-04-20 15:09 43.39683 132.15538 39 ft 22 kts 241°
2026-04-20 15:09 43.39607 132.15349 39 ft 23 kts 241°
2026-04-20 15:09 43.39526 132.15148 39 ft 25 kts 241°
2026-04-20 15:10 43.39442 132.14939 39 ft 26 kts 240°
2026-04-20 15:10 43.39352 132.14717 39 ft 27 kts 241°
2026-04-20 15:10 43.39259 132.14487 39 ft 28 kts 241°
2026-04-20 15:10 43.39163 132.14249 39 ft 29 kts 241°
2026-04-20 15:11 43.39064 132.14005 39 ft 30 kts 241°
2026-04-20 15:11 43.38961 132.13755 36 ft 30 kts 241°
2026-04-20 15:11 43.38859 132.13498 39 ft 31 kts 241°
2026-04-20 15:11 43.38786 132.13316 39 ft 0 kts 241°
2026-04-20 15:12 43.38777 132.13290 39 ft 6 kts 247°
2026-04-20 15:12 43.38772 132.13224 39 ft 8 kts 281°
2026-04-20 15:12 43.38809 132.13171 40 ft 9 kts 328°
2026-04-20 15:12 43.38839 132.13146 40 ft 0 kts 330°
2026-04-20 15:13 43.38847 132.13141 40 ft 5 kts 330°
2026-04-20 15:13 43.38889 132.13107 40 ft 9 kts 330°
2026-04-20 15:13 43.38912 132.13091 39 ft 0 kts 342°
2026-04-20 15:14 43.38923 132.13093 39 ft 4 kts
2026-04-20 15:14 43.38952 132.13133 39 ft 9 kts 56°
2026-04-20 15:14 43.38963 132.13158 39 ft 0 kts 59°
2026-04-20 15:15 43.39005 132.13256 39 ft 38 kts 61°
2026-04-20 15:16 43.39251 132.13868 41 ft 106 kts 61°
2026-04-20 15:16 43.39706 132.14999 46 ft 162 kts 62°
2026-04-20 15:16 43.40230 132.16337 777 ft 150 kts 61°
2026-04-20 15:16 43.40703 132.17587 1415 ft 159 kts 60°
2026-04-20 15:17 43.41260 132.19050 1511 ft 188 kts 59°
2026-04-20 15:17 43.41945 132.20688 1823 ft 205 kts 57°
2026-04-20 15:17 43.42672 132.22420 2286 ft 213 kts 56°
2026-04-20 15:17 43.43420 132.24232 2750 ft 225 kts 56°
2026-04-20 15:18 43.44222 132.26188 3056 ft 246 kts 55°
2026-04-20 15:18 43.45085 132.28310 3539 ft 259 kts 55°
2026-04-20 15:18 43.45966 132.30504 4182 ft 265 kts 54°
2026-04-20 15:18 43.46863 132.32741 4886 ft 269 kts 54°
2026-04-20 15:19 43.47769 132.35003 5643 ft 271 kts 54°
2026-04-20 15:19 43.48761 132.37225 6324 ft 271 kts 44°
2026-04-20 15:19 43.50155 132.38886 7010 ft 264 kts 25°
2026-04-20 15:19 43.51743 132.40184 7697 ft 267 kts 22°
2026-04-20 15:20 43.53376 132.41456 8374 ft 272 kts 22°
2026-04-20 15:20 43.55032 132.42752 9046 ft 277 kts 23°
2026-04-20 15:20 43.56717 132.44079 9735 ft 281 kts 23°
2026-04-20 15:20 43.58457 132.45451 10160 ft 296 kts 24°
2026-04-20 15:21 43.60296 132.46900 10445 ft 313 kts 24°
2026-04-20 15:21 43.62234 132.48440 10731 ft 330 kts 25°
2026-04-20 15:21 43.64269 132.50063 11016 ft 346 kts 25°
2026-04-20 15:21 43.66387 132.51760 11404 ft 357 kts 26°
2026-04-20 15:22 43.68554 132.53499 11914 ft 364 kts 26°
2026-04-20 15:22 43.70769 132.55270 12435 ft 371 kts 26°
2026-04-20 15:22 43.73016 132.57075 12927 ft 377 kts 27°
2026-04-20 15:22 43.75308 132.58914 13425 ft 384 kts 27°
2026-04-20 15:23 43.77634 132.60780 13905 ft 388 kts 27°
2026-04-20 15:23 43.79969 132.62696 14424 ft 393 kts 30°
2026-04-20 15:23 43.82196 132.64934 14886 ft 399 kts 37°
2026-04-20 15:23 43.84350 132.67421 15291 ft 406 kts 40°
2026-04-20 15:24 43.86469 132.70050 15776 ft 411 kts 41°
2026-04-20 15:24 43.88581 132.72738 16267 ft 415 kts 42°
2026-04-20 15:24 43.90716 132.75461 16748 ft 419 kts 42°
2026-04-20 15:24 43.92879 132.78197 17212 ft 423 kts 42°
2026-04-20 15:25 43.95046 132.80912 17677 ft 427 kts 41°
2026-04-20 15:25 43.97297 132.83713 18121 ft 432 kts 41°
2026-04-20 15:25 43.99525 132.86477 18425 ft 438 kts 42°
2026-04-20 15:25 44.01840 132.89345 18823 ft 442 kts 42°
2026-04-20 15:26 44.04112 132.92159 19222 ft 445 kts 43°
2026-04-20 15:26 44.06426 132.95029 19611 ft 448 kts 43°
2026-04-20 15:26 44.08756 132.97925 20005 ft 451 kts 43°
2026-04-20 15:26 44.11105 133.00849 20397 ft 455 kts 43°
2026-04-20 15:27 44.13470 133.03798 20751 ft 458 kts 43°
2026-04-20 15:27 44.15857 133.06775 21066 ft 463 kts 44°
2026-04-20 15:27 44.18261 133.09779 21420 ft 466 kts 44°
2026-04-20 15:27 44.20776 133.12673 21787 ft 470 kts 39°
2026-04-20 15:28 44.23377 133.15463 22147 ft 474 kts 39°
2026-04-20 15:28 44.26020 133.18226 22498 ft 477 kts 38°
2026-04-20 15:28 44.28701 133.20991 22852 ft 480 kts 38°
2026-04-20 15:28 44.31396 133.23757 23188 ft 483 kts 38°
2026-04-20 15:29 44.34107 133.26539 23531 ft 484 kts 38°
2026-04-20 15:29 44.36830 133.29339 23840 ft 487 kts 38°
2026-04-20 15:29 44.39560 133.32156 24139 ft 489 kts 38°
2026-04-20 15:29 44.42298 133.34990 24442 ft 491 kts 39°
2026-04-20 15:30 44.45043 133.37837 24745 ft 493 kts 39°
2026-04-20 15:30 44.47803 133.40705 25071 ft 495 kts 39°
2026-04-20 15:30 44.50578 133.43590 25367 ft 497 kts 39°
2026-04-20 15:30 44.53358 133.46484 25660 ft 499 kts 39°
2026-04-20 15:31 44.56153 133.49397 25967 ft 501 kts 39°
2026-04-20 15:31 44.58954 133.52321 26278 ft 504 kts 39°
2026-04-20 15:31 44.61771 133.55266 26591 ft 506 kts 39°
2026-04-20 15:31 44.64600 133.58226 26900 ft 508 kts 39°
2026-04-20 15:32 44.67443 133.61204 27159 ft 512 kts 40°
2026-04-20 15:32 44.70305 133.64206 27466 ft 515 kts 40°
2026-04-20 15:32 44.73183 133.67229 27809 ft 517 kts 40°
2026-04-20 15:32 44.76070 133.70266 28153 ft 520 kts 40°
2026-04-20 15:33 44.78932 133.73280 28497 ft 522 kts 40°
2026-04-20 15:33 44.81884 133.76393 28838 ft 525 kts 40°
2026-04-20 15:33 44.84776 133.79445 29164 ft 528 kts 40°
2026-04-20 15:33 44.87718 133.82555 29508 ft 530 kts 40°
2026-04-20 15:34 44.90676 133.85687 29831 ft 533 kts 40°
2026-04-20 15:34 44.93652 133.88827 30122 ft 536 kts 39°
2026-04-20 15:34 44.96685 133.91904 30424 ft 538 kts 38°
2026-04-20 15:34 44.99756 133.94937 30735 ft 540 kts 37°
2026-04-20 15:35 45.02858 133.97979 30897 ft 545 kts 37°
2026-04-20 15:35 45.05982 134.01049 31171 ft 548 kts 37°
2026-04-20 15:35 45.09102 134.04139 31566 ft 548 kts 37°
2026-04-20 15:35 45.12221 134.07242 31943 ft 547 kts 37°
2026-04-20 15:36 45.15335 134.10353 32184 ft 550 kts 37°
2026-04-20 15:36 45.18466 134.13492 32388 ft 552 kts 37°
2026-04-20 15:36 45.21611 134.16652 32531 ft 556 kts 37°
2026-04-20 15:36 45.24771 134.19834 32781 ft 558 kts 37°
2026-04-20 15:37 45.27938 134.23027 33039 ft 559 kts 37°
2026-04-20 15:37 45.31110 134.26229 33276 ft 560 kts 36°
2026-04-20 15:37 45.34291 134.29445 33496 ft 562 kts 36°
2026-04-20 15:37 45.37474 134.32668 33658 ft 564 kts 37°
2026-04-20 15:38 45.40678 134.35915 33846 ft 565 kts 36°
2026-04-20 15:38 45.43871 134.39156 34166 ft 563 kts 36°
2026-04-20 15:38 45.47045 134.42383 34492 ft 560 kts 36°
2026-04-20 15:38 45.50216 134.45610 34783 ft 559 kts 36°
2026-04-20 15:39 45.53373 134.48828 35050 ft 558 kts 36°
2026-04-20 15:39 45.56530 134.52051 35216 ft 559 kts 36°
2026-04-20 15:39 45.59692 134.55283 35411 ft 559 kts 36°
2026-04-20 15:39 45.62846 134.58511 35714 ft 557 kts 36°
2026-04-20 15:40 45.65991 134.61737 36059 ft 555 kts 36°
2026-04-20 15:40 45.69122 134.64952 36413 ft 553 kts 36°
2026-04-20 15:40 45.72242 134.68160 36653 ft 551 kts 36°
2026-04-20 15:40 45.75356 134.71365 36855 ft 552 kts 36°
2026-04-20 15:41 45.78470 134.74576 37094 ft 551 kts 36°
2026-04-20 15:41 45.81575 134.77782 37363 ft 550 kts 36°
2026-04-20 15:41 45.84673 134.80978 37629 ft 548 kts 35°
2026-04-20 15:41 45.87919 134.83822 37852 ft 546 kts 25°
2026-04-20 15:42 45.91407 134.85914 38053 ft 542 kts 15°
2026-04-20 15:42 45.95022 134.87115 38251 ft 537 kts
2026-04-20 15:42 45.98718 134.87373 38409 ft 531 kts 353°
2026-04-20 15:43 46.00579 134.87125 38456 ft 527 kts 347°
2026-04-20 15:43 46.04122 134.85885 38475 ft 522 kts 335°
2026-04-20 15:43 46.07381 134.83683 38435 ft 516 kts 323°
2026-04-20 15:43 46.10224 134.80583 38342 ft 510 kts 310°
2026-04-20 15:44 46.12494 134.76720 38266 ft 502 kts 297°
2026-04-20 15:44 46.14051 134.72289 38237 ft 491 kts 284°
2026-04-20 15:44 46.14780 134.67541 38220 ft 481 kts 269°
2026-04-20 15:44 46.14607 134.62783 38133 ft 473 kts 254°
2026-04-20 15:45 46.13513 134.58351 37976 ft 469 kts 239°
2026-04-20 15:45 46.11558 134.54624 37755 ft 467 kts 222°
2026-04-20 15:45 46.08897 134.51969 37551 ft 468 kts 206°
2026-04-20 15:45 46.05766 134.50673 37425 ft 473 kts 188°
2026-04-20 15:46 43.39705 132.16412 37368 ft 0 kts 148°